Flag for U.S.A. Weather past 2 weeks in Scottsdale, Arizona, U.S.A.

Now
94 °F

Sunny.


Feels Like: 89 °F
Forecast: 67 / 91 °F
Wind: 6 mph from North

Location: Scottsdale Airport

Current Time: May 28, 2015 at 2:31:12 PM

Latest Report: May 28, 2015 at 1:53 PM


Visibility: 10 mi

Pressure: 29.83 "Hg

Humidity: 10%

Dew point: 29 °F

Location of ScottsdaleLocation

Historic Weather in Scottsdale — Graph

°F

Scottsdale temperature yesterday

Maximum temperature yesterday: 92 °F (at 2:53 PM)
Minimum temperature yesterday: 69 °F (at 4:53 AM)
Average temperature yesterday: 82 °F

Past Weeks' High & Low Weather Summary

 TemperatureHumidityPressure
High92 °F (May 27, 2:53 PM)93% (May 15, 4:53 PM)29.98 "Hg (May 15, 4:53 PM)
Low54 °F (May 15, 11:53 PM)8% (May 18, 6:53 PM)29.68 "Hg (May 14, 3:53 PM)
Average74 °F31%29.84 "Hg
* Reported May 13 12:53 PM — May 28 12:53 PM, Scottsdale, Weather by CustomWeather, © 2015

Note: Actual official high and low records may vary slightly from our data, if they occured in-between our weather recording intervals... More about our weather records

Advertising

Scottsdale weather history for previous 24 hours

 ConditionsComfort  
Time TempWeatherWind HumidityBarometerVisibility
12:53 PM
Thu, May 28
92 °FSunny.3 mph10%29.85 "Hg10 mi
11:53 AM91 °FSunny.5 mph11%29.87 "Hg10 mi
10:53 AM89 °FSunny.3 mph12%29.88 "Hg10 mi
9:53 AM85 °FSunny.No wind17%29.89 "Hg10 mi
8:53 AM80 °FSunny.5 mph21%29.89 "Hg10 mi
7:53 AM75 °FSunny.No wind28%29.89 "Hg10 mi
6:53 AM70 °FSunny.No wind32%29.87 "Hg10 mi
5:53 AM66 °FSunny.No wind45%29.86 "Hg10 mi
4:53 AM67 °FClear.No wind42%29.84 "Hg10 mi
3:53 AM68 °FClear.No wind38%29.83 "Hg10 mi
2:53 AM70 °FClear.No wind31%29.83 "Hg10 mi
1:53 AM71 °FClear.3 mph30%29.83 "Hg10 mi
12:53 AM73 °FClear.3 mph28%29.82 "Hg10 mi
11:53 PM
Wed, May 27
75 °FClear.No wind28%29.83 "Hg10 mi
10:53 PM79 °FClear.No wind21%29.82 "Hg10 mi
9:53 PM81 °FClear.No wind20%29.82 "Hg10 mi
8:53 PM85 °FClear.No wind16%29.79 "Hg10 mi
7:53 PM87 °FClear.3 mph14%29.78 "Hg10 mi
6:53 PM90 °FSunny.5 mph10%29.77 "Hg10 mi
5:53 PM91 °FSunny.6 mph10%29.77 "Hg10 mi
4:53 PM91 °FSunny.3 mph10%29.78 "Hg10 mi
3:53 PM91 °FSunny.3 mph10%29.78 "Hg10 mi
2:53 PM92 °FSunny.6 mph9%29.80 "Hg10 mi
Weather by CustomWeather, © 2015

See weather overviewHow to use our weather pages